NSZ3295 LYTV-EKCH

Flight info

Callsign NSZ3295
Flight time 2h 9m
Altitude 38000
Route NIK DCT GACMO DCT GUBOK DCT VEBAL DCT STEIN DCT LOKVU DCT HDO DCT BAKDO DCT KOSEB T298 MONAK
Aircraft B738/M-SDE2E3FGHIRWXY/LB1

Departure

Time 2026-04-23 15:07
Airport Tivat Airport (LYTV)

Arrival

Time 2026-04-23 17:16
Airport Copenhagen Kastrup Airport (EKCH)
Time Latitude Longitude Altitude Speed Heading
2026-04-23 14:52 42.41197 18.71708 7 ft 0 kts 185°
2026-04-23 14:53 42.41194 18.71707 7 ft 0 kts 180°
2026-04-23 15:01 42.41186 18.71707 7 ft 4 kts 179°
2026-04-23 15:01 42.41130 18.71733 6 ft 12 kts 146°
2026-04-23 15:01 42.41060 18.71803 6 ft 13 kts 140°
2026-04-23 15:01 42.40992 18.71842 6 ft 11 kts 207°
2026-04-23 15:02 42.40926 18.71794 5 ft 11 kts 169°
2026-04-23 15:02 42.40857 18.71870 3 ft 16 kts 139°
2026-04-23 15:02 42.40761 18.71981 2 ft 20 kts 140°
2026-04-23 15:02 42.40657 18.72102 -1 ft 19 kts 139°
2026-04-23 15:03 42.40557 18.72221 1 ft 19 kts 139°
2026-04-23 15:03 42.40459 18.72335 2 ft 18 kts 139°
2026-04-23 15:03 42.40365 18.72446 5 ft 18 kts 139°
2026-04-23 15:03 42.40274 18.72553 4 ft 17 kts 139°
2026-04-23 15:04 42.40186 18.72655 4 ft 16 kts 139°
2026-04-23 15:04 42.40096 18.72762 2 ft 18 kts 139°
2026-04-23 15:04 42.39996 18.72879 0 ft 19 kts 139°
2026-04-23 15:04 42.39898 18.72994 -1 ft 18 kts 139°
2026-04-23 15:05 42.39803 18.73104 0 ft 18 kts 139°
2026-04-23 15:05 42.39712 18.73211 2 ft 16 kts 139°
2026-04-23 15:05 42.39629 18.73269 2 ft 12 kts 151°
2026-04-23 15:05 42.39617 18.73304 3 ft 0 kts 68°
2026-04-23 15:06 42.39623 18.73308 3 ft 2 kts 27°
2026-04-23 15:06 42.39643 18.73292 2 ft 7 kts 321°
2026-04-23 15:06 42.39798 18.73109 0 ft 69 kts 319°
2026-04-23 15:06 42.40369 18.72439 4 ft 145 kts 319°
2026-04-23 15:07 42.41260 18.71399 421 ft 180 kts 317°
2026-04-23 15:07 42.42230 18.70290 1533 ft 181 kts 321°
2026-04-23 15:07 42.43169 18.69182 2605 ft 185 kts 319°
2026-04-23 15:07 42.44199 18.67978 3096 ft 208 kts 321°
2026-04-23 15:08 42.45510 18.66971 3382 ft 228 kts 353°
2026-04-23 15:08 42.47103 18.67339 3879 ft 245 kts 28°
2026-04-23 15:08 42.48579 18.68553 4792 ft 251 kts 31°
2026-04-23 15:09 42.51564 18.71098 6552 ft 258 kts 31°
2026-04-23 15:09 42.53087 18.72380 7555 ft 257 kts 31°
2026-04-23 15:09 42.54621 18.73654 8447 ft 260 kts 31°
2026-04-23 15:09 42.56177 18.74937 9346 ft 264 kts 31°
2026-04-23 15:10 42.57215 18.75788 9974 ft 265 kts 30°
2026-04-23 15:10 42.59355 18.77534 10984 ft 271 kts 31°
2026-04-23 15:10 42.60992 18.78861 11659 ft 278 kts 28°
2026-04-23 15:10 42.62909 18.79600 11916 ft 304 kts
2026-04-23 15:11 42.65053 18.78983 12161 ft 329 kts 343°
2026-04-23 15:11 42.67258 18.77944 12694 ft 341 kts 343°
2026-04-23 15:11 42.69501 18.76855 13511 ft 343 kts 343°
2026-04-23 15:11 42.71726 18.75774 14300 ft 345 kts 343°
2026-04-23 15:12 42.74007 18.74680 14965 ft 350 kts 344°
2026-04-23 15:12 42.76313 18.73586 15688 ft 352 kts 344°
2026-04-23 15:12 42.78639 18.72492 16367 ft 355 kts 345°
2026-04-23 15:12 42.80990 18.71392 17004 ft 360 kts 345°
2026-04-23 15:13 42.83376 18.70279 17674 ft 363 kts 345°
2026-04-23 15:13 42.85777 18.69160 18373 ft 367 kts 345°
2026-04-23 15:13 42.88206 18.68028 18920 ft 371 kts 346°
2026-04-23 15:13 42.90658 18.66885 19487 ft 374 kts 346°
2026-04-23 15:14 42.93126 18.65732 20050 ft 377 kts 346°
2026-04-23 15:14 42.95618 18.64567 20617 ft 380 kts 346°
2026-04-23 15:14 42.98131 18.63392 21144 ft 384 kts 346°
2026-04-23 15:14 43.00671 18.62203 21725 ft 387 kts 346°
2026-04-23 15:15 43.03226 18.61005 22289 ft 390 kts 346°
2026-04-23 15:15 43.05806 18.59795 22833 ft 393 kts 346°
2026-04-23 15:15 43.08408 18.58573 23334 ft 396 kts 346°
2026-04-23 15:15 43.11024 18.57344 23804 ft 399 kts 346°
2026-04-23 15:16 43.13627 18.56121 24217 ft 402 kts 346°
2026-04-23 15:16 43.16334 18.54972 24639 ft 403 kts 349°
2026-04-23 15:16 43.19005 18.53989 25044 ft 404 kts 351°
2026-04-23 15:16 43.21735 18.52956 25391 ft 410 kts 348°
2026-04-23 15:17 43.24478 18.51810 25745 ft 414 kts 347°
2026-04-23 15:17 43.27236 18.50616 26102 ft 417 kts 347°
2026-04-23 15:17 43.30010 18.49405 26508 ft 420 kts 347°
2026-04-23 15:17 43.32801 18.48191 26861 ft 422 kts 347°
2026-04-23 15:18 43.35610 18.46978 27246 ft 424 kts 347°
2026-04-23 15:18 43.38436 18.45765 27600 ft 426 kts 347°
2026-04-23 15:18 43.41277 18.44551 27902 ft 429 kts 347°
2026-04-23 15:18 43.44136 18.43332 28246 ft 431 kts 347°
2026-04-23 15:19 43.47006 18.42108 28587 ft 433 kts 347°
2026-04-23 15:19 43.49898 18.40876 28917 ft 436 kts 347°
2026-04-23 15:19 43.52802 18.39637 29241 ft 438 kts 347°
2026-04-23 15:19 43.55723 18.38390 29521 ft 441 kts 347°
2026-04-23 15:20 43.57668 18.37559 29722 ft 442 kts 347°
2026-04-23 15:20 43.61609 18.35872 30173 ft 444 kts 347°
2026-04-23 15:20 43.64554 18.34609 30557 ft 443 kts 347°
2026-04-23 15:20 43.67492 18.33348 30967 ft 441 kts 347°
2026-04-23 15:21 43.70417 18.32090 31343 ft 440 kts 347°
2026-04-23 15:21 43.73333 18.30836 31687 ft 439 kts 347°
2026-04-23 15:21 43.76247 18.29582 32032 ft 438 kts 346°
2026-04-23 15:21 43.79160 18.28328 32374 ft 438 kts 346°
2026-04-23 15:22 43.82066 18.27075 32722 ft 437 kts 346°
2026-04-23 15:22 43.84968 18.25823 33070 ft 437 kts 346°
2026-04-23 15:22 43.87869 18.24570 33384 ft 436 kts 346°
2026-04-23 15:22 43.90769 18.23316 33680 ft 436 kts 346°
2026-04-23 15:23 43.93666 18.22063 33981 ft 436 kts 346°
2026-04-23 15:23 43.96524 18.20824 34278 ft 435 kts 346°
2026-04-23 15:23 43.99407 18.19573 34564 ft 434 kts 346°
2026-04-23 15:23 44.02286 18.18323 34821 ft 433 kts 346°
2026-04-23 15:24 44.05158 18.17075 35092 ft 432 kts 346°
2026-04-23 15:24 44.08023 18.15828 35365 ft 431 kts 346°
2026-04-23 15:24 44.10883 18.14583 35634 ft 430 kts 346°
2026-04-23 15:24 44.13735 18.13339 35909 ft 429 kts 346°
2026-04-23 15:25 44.16582 18.12097 36163 ft 428 kts 346°
2026-04-23 15:25 44.19424 18.10856 36412 ft 427 kts 346°
2026-04-23 15:25 44.22255 18.09618 36687 ft 426 kts 346°
2026-04-23 15:25 44.25078 18.08382 36922 ft 425 kts 346°
2026-04-23 15:26 44.27902 18.07145 37145 ft 425 kts 346°
2026-04-23 15:26 44.30718 18.05910 37405 ft 424 kts 346°
2026-04-23 15:26 44.33523 18.04678 37675 ft 422 kts 346°
2026-04-23 15:26 44.36286 18.03464 37885 ft 421 kts 346°
2026-04-23 15:27 44.39082 18.02234 38057 ft 421 kts 346°
2026-04-23 15:27 44.44651 17.99780 38090 ft 420 kts 346°
2026-04-23 15:28 44.50246 17.97312 38100 ft 423 kts 346°
2026-04-23 15:28 44.55894 17.94815 38093 ft 427 kts 346°
2026-04-23 15:29 44.61568 17.92300 38098 ft 429 kts 345°
2026-04-23 15:29 44.67273 17.89766 38082 ft 430 kts 345°
2026-04-23 15:30 44.72974 17.87227 38084 ft 429 kts 345°
2026-04-23 15:30 44.78654 17.84693 38078 ft 427 kts 345°
2026-04-23 15:31 44.84314 17.82163 38077 ft 425 kts 345°
2026-04-23 15:31 44.89909 17.79657 38073 ft 423 kts 345°
2026-04-23 15:32 44.95506 17.77145 38079 ft 421 kts 345°
2026-04-23 15:32 45.01080 17.74638 38081 ft 419 kts 345°
2026-04-23 15:33 45.06626 17.72140 38089 ft 418 kts 345°
2026-04-23 15:33 45.12168 17.69638 38080 ft 417 kts 345°
2026-04-23 15:34 45.17705 17.67133 38082 ft 417 kts 345°
2026-04-23 15:34 45.23212 17.64637 38081 ft 418 kts 345°
2026-04-23 15:35 45.28757 17.62118 38078 ft 419 kts 345°
2026-04-23 15:35 45.34319 17.59586 38082 ft 420 kts 345°
2026-04-23 15:36 45.39895 17.57042 38087 ft 421 kts 344°
2026-04-23 15:36 45.44546 17.54916 38081 ft 423 kts 344°
2026-04-23 15:37 45.50155 17.52348 38086 ft 424 kts 344°
2026-04-23 15:37 45.55772 17.49770 38082 ft 425 kts 344°
2026-04-23 15:38 45.61406 17.47179 38084 ft 425 kts 344°
2026-04-23 15:38 45.67047 17.44579 38083 ft 426 kts 344°
2026-04-23 15:39 45.72697 17.41970 38079 ft 426 kts 344°
2026-04-23 15:39 45.78297 17.39378 38086 ft 426 kts 344°
2026-04-23 15:40 45.83933 17.36764 38081 ft 425 kts 344°
2026-04-23 15:40 45.89564 17.34147 38083 ft 424 kts 344°
2026-04-23 15:41 45.95184 17.31529 38078 ft 424 kts 344°
2026-04-23 15:41 46.00791 17.28909 38080 ft 423 kts 344°
2026-04-23 15:42 46.06379 17.26272 38084 ft 422 kts 344°
2026-04-23 15:42 46.11923 17.23643 38080 ft 422 kts 344°
2026-04-23 15:43 46.17498 17.20996 38082 ft 421 kts 344°
2026-04-23 15:43 46.23063 17.18350 38087 ft 421 kts 344°
2026-04-23 15:44 46.28622 17.15701 38083 ft 421 kts 344°
2026-04-23 15:44 46.34185 17.13044 38080 ft 421 kts 344°
2026-04-23 15:45 46.39745 17.10384 38081 ft 421 kts 344°
2026-04-23 15:45 46.45311 17.07715 38086 ft 422 kts 344°
2026-04-23 15:46 46.50886 17.05035 38086 ft 422 kts 344°
2026-04-23 15:46 46.56470 17.02346 38078 ft 423 kts 344°
2026-04-23 15:47 46.62069 16.99643 38078 ft 424 kts 344°
2026-04-23 15:47 46.67664 16.96936 38073 ft 424 kts 344°
2026-04-23 15:48 46.73221 16.94241 38076 ft 424 kts 344°
2026-04-23 15:48 46.78821 16.91521 38075 ft 424 kts 344°
2026-04-23 15:49 46.84427 16.88791 38070 ft 425 kts 344°
2026-04-23 15:49 46.90029 16.86057 38074 ft 425 kts 344°
2026-04-23 15:50 46.95633 16.83315 38086 ft 425 kts 344°
2026-04-23 15:50 47.01239 16.80568 38074 ft 424 kts 344°
2026-04-23 15:51 47.06834 16.77819 38081 ft 424 kts 344°
2026-04-23 15:51 47.12430 16.75064 38081 ft 424 kts 344°
2026-04-23 15:52 47.18018 16.72305 38080 ft 423 kts 344°
2026-04-23 15:52 47.23596 16.69547 38080 ft 422 kts 344°
2026-04-23 15:53 47.29159 16.66789 38078 ft 421 kts 344°
2026-04-23 15:53 47.34710 16.64031 38075 ft 420 kts 344°
2026-04-23 15:54 47.40205 16.61295 38076 ft 419 kts 345°
2026-04-23 15:54 47.45745 16.58511 38062 ft 417 kts 344°
2026-04-23 15:55 47.51180 16.55712 38063 ft 415 kts 344°
2026-04-23 15:55 47.56627 16.52894 38061 ft 414 kts 344°
2026-04-23 15:56 47.62044 16.50090 38062 ft 412 kts 344°
2026-04-23 15:56 47.67446 16.47292 38067 ft 411 kts 344°
2026-04-23 15:57 47.72847 16.44491 38062 ft 411 kts 344°
2026-04-23 15:57 47.78255 16.41679 38066 ft 412 kts 344°
2026-04-23 15:58 47.83687 16.38849 38064 ft 414 kts 344°
2026-04-23 15:58 47.89109 16.36018 38062 ft 416 kts 344°
2026-04-23 15:59 47.94589 16.33149 38073 ft 419 kts 344°
2026-04-23 15:59 48.00102 16.30257 38077 ft 421 kts 344°
2026-04-23 16:00 48.05643 16.27343 38069 ft 423 kts 345°
2026-04-23 16:00 48.11208 16.24410 38071 ft 424 kts 345°
2026-04-23 16:01 48.16778 16.21466 38071 ft 424 kts 345°
2026-04-23 16:01 48.22339 16.18520 38070 ft 423 kts 345°
2026-04-23 16:02 48.27863 16.15586 38072 ft 418 kts 345°
2026-04-23 16:02 48.33304 16.12690 38078 ft 412 kts 345°
2026-04-23 16:03 48.38693 16.09818 38083 ft 409 kts 345°
2026-04-23 16:03 48.44043 16.06960 38092 ft 407 kts 345°
2026-04-23 16:04 48.49334 16.04128 38102 ft 406 kts 345°
2026-04-23 16:04 48.54658 16.01271 38101 ft 406 kts 345°
2026-04-23 16:05 48.59127 15.98869 38108 ft 408 kts 345°
2026-04-23 16:05 48.65356 15.95512 38110 ft 410 kts 345°
2026-04-23 16:06 48.70746 15.92599 38109 ft 412 kts 345°
2026-04-23 16:06 48.76159 15.89667 38111 ft 414 kts 345°
2026-04-23 16:07 48.81597 15.86715 38115 ft 416 kts 345°
2026-04-23 16:07 48.87052 15.83744 38119 ft 417 kts 345°
2026-04-23 16:08 48.92430 15.80290 38112 ft 421 kts 341°
2026-04-23 16:08 48.97752 15.76586 38117 ft 421 kts 340°
2026-04-23 16:09 49.03071 15.72882 38122 ft 420 kts 341°
2026-04-23 16:09 49.08394 15.69202 38117 ft 419 kts 341°
2026-04-23 16:10 49.13671 15.65564 38122 ft 418 kts 341°
2026-04-23 16:10 49.18968 15.61909 38121 ft 417 kts 341°
2026-04-23 16:11 49.24245 15.58259 38134 ft 416 kts 341°
2026-04-23 16:11 49.29512 15.54607 38128 ft 415 kts 341°
2026-04-23 16:12 49.34761 15.50959 38123 ft 414 kts 341°
2026-04-23 16:12 49.39999 15.47309 38130 ft 413 kts 341°
2026-04-23 16:13 49.45230 15.43657 38126 ft 413 kts 341°
2026-04-23 16:13 49.53063 15.38171 38139 ft 412 kts 341°
2026-04-23 16:14 49.58284 15.34504 38126 ft 412 kts 341°
2026-04-23 16:14 49.63471 15.30852 38137 ft 413 kts 341°
2026-04-23 16:15 49.68702 15.27160 38137 ft 413 kts 341°
2026-04-23 16:15 49.73938 15.23455 38148 ft 413 kts 340°
2026-04-23 16:16 49.79176 15.19741 38133 ft 414 kts 340°
2026-04-23 16:16 49.84425 15.16010 38147 ft 415 kts 340°
2026-04-23 16:17 49.89683 15.12264 38135 ft 416 kts 340°
2026-04-23 16:17 49.94950 15.08502 38148 ft 417 kts 340°
2026-04-23 16:18 50.00198 15.04744 38136 ft 418 kts 340°
2026-04-23 16:18 50.05484 15.00950 38146 ft 419 kts 340°
2026-04-23 16:19 50.10782 14.97138 38136 ft 419 kts 340°
2026-04-23 16:19 50.16076 14.93318 38158 ft 419 kts 340°
2026-04-23 16:20 50.21373 14.89488 38146 ft 419 kts 340°
2026-04-23 16:20 50.26663 14.85654 38157 ft 419 kts 340°
2026-04-23 16:21 50.31923 14.81832 38148 ft 420 kts 340°
2026-04-23 16:21 50.37249 14.77952 38157 ft 419 kts 340°
2026-04-23 16:22 50.42510 14.74111 38147 ft 419 kts 340°
2026-04-23 16:22 50.47798 14.70240 38160 ft 419 kts 340°
2026-04-23 16:23 50.53084 14.66361 38158 ft 419 kts 340°
2026-04-23 16:23 50.58377 14.62467 38163 ft 419 kts 340°
2026-04-23 16:24 50.63631 14.58592 38162 ft 419 kts 340°
2026-04-23 16:24 50.68915 14.54685 38174 ft 419 kts 339°
2026-04-23 16:25 50.74195 14.50771 38163 ft 419 kts 339°
2026-04-23 16:25 50.79468 14.46853 38175 ft 419 kts 339°
2026-04-23 16:26 50.84748 14.42919 38161 ft 419 kts 339°
2026-04-23 16:26 50.89984 14.39010 38183 ft 419 kts 339°
2026-04-23 16:27 50.95378 14.35706 38164 ft 413 kts 349°
2026-04-23 16:27 51.00952 14.33465 38180 ft 413 kts 350°
2026-04-23 16:28 51.05599 14.31632 38166 ft 414 kts 350°
2026-04-23 16:28 51.11189 14.29388 38191 ft 415 kts 349°
2026-04-23 16:29 51.16788 14.27105 38178 ft 416 kts 349°
2026-04-23 16:29 51.22402 14.24798 38178 ft 417 kts 349°
2026-04-23 16:30 51.28037 14.22474 38166 ft 418 kts 349°
2026-04-23 16:30 51.33678 14.20142 38180 ft 419 kts 349°
2026-04-23 16:31 51.39328 14.17800 38170 ft 419 kts 349°
2026-04-23 16:31 51.44942 14.15468 38188 ft 420 kts 349°
2026-04-23 16:32 51.50596 14.13113 38174 ft 420 kts 349°
2026-04-23 16:32 51.56258 14.10748 38175 ft 420 kts 349°
2026-04-23 16:33 51.61913 14.08381 38175 ft 420 kts 349°
2026-04-23 16:33 51.67565 14.06009 38178 ft 420 kts 349°
2026-04-23 16:34 51.73211 14.03633 38170 ft 419 kts 349°
2026-04-23 16:34 51.78859 14.01251 38182 ft 419 kts 349°
2026-04-23 16:35 51.84468 13.98879 38170 ft 419 kts 349°
2026-04-23 16:35 51.90112 13.96485 38177 ft 419 kts 349°
2026-04-23 16:36 51.95725 13.93822 38176 ft 421 kts 346°
2026-04-23 16:36 52.01306 13.90926 38188 ft 421 kts 346°
2026-04-23 16:37 52.06888 13.88038 38176 ft 421 kts 346°
2026-04-23 16:37 52.12478 13.85177 38187 ft 421 kts 346°
2026-04-23 16:38 52.18075 13.82324 38178 ft 422 kts 346°
2026-04-23 16:38 52.23678 13.79465 38189 ft 422 kts 347°
2026-04-23 16:39 52.29296 13.76592 38182 ft 423 kts 346°
2026-04-23 16:39 52.34911 13.73711 38192 ft 423 kts 346°
2026-04-23 16:40 52.40535 13.70818 38183 ft 424 kts 347°
2026-04-23 16:40 52.46167 13.67912 38192 ft 424 kts 347°
2026-04-23 16:41 52.51769 13.65015 38180 ft 425 kts 347°
2026-04-23 16:41 52.57420 13.62085 38190 ft 425 kts 347°
2026-04-23 16:42 52.63075 13.59144 38171 ft 426 kts 347°
2026-04-23 16:42 52.68735 13.56192 38183 ft 426 kts 347°
2026-04-23 16:43 52.74394 13.53234 38170 ft 427 kts 347°
2026-04-23 16:43 52.80060 13.50263 38179 ft 427 kts 347°
2026-04-23 16:44 52.85700 13.47298 38167 ft 428 kts 347°
2026-04-23 16:44 52.91374 13.44307 38182 ft 428 kts 347°
2026-04-23 16:45 52.97049 13.41307 38164 ft 428 kts 347°
2026-04-23 16:45 53.02732 13.38294 38177 ft 429 kts 347°
2026-04-23 16:46 53.08420 13.35271 38166 ft 429 kts 347°
2026-04-23 16:46 53.14111 13.32238 38178 ft 430 kts 347°
2026-04-23 16:47 53.19814 13.29190 38166 ft 430 kts 347°
2026-04-23 16:47 53.25517 13.26133 38175 ft 431 kts 347°
2026-04-23 16:48 53.31224 13.23065 38170 ft 431 kts 347°
2026-04-23 16:48 53.36940 13.19984 38171 ft 432 kts 347°
2026-04-23 16:49 53.42626 13.16910 38170 ft 432 kts 347°
2026-04-23 16:49 53.48392 13.13784 38173 ft 433 kts 347°
2026-04-23 16:50 53.54097 13.10684 37941 ft 437 kts 347°
2026-04-23 16:50 53.57004 13.09102 37454 ft 439 kts 347°
2026-04-23 16:50 53.59910 13.07515 36919 ft 437 kts 348°
2026-04-23 16:51 53.62779 13.05942 36537 ft 432 kts 348°
2026-04-23 16:51 53.65623 13.04381 36121 ft 428 kts 348°
2026-04-23 16:51 53.68443 13.02833 35709 ft 425 kts 349°
2026-04-23 16:51 53.71246 13.01293 35300 ft 422 kts 349°
2026-04-23 16:52 53.74029 12.99764 34843 ft 420 kts 350°
2026-04-23 16:52 53.76807 12.98236 34409 ft 419 kts 351°
2026-04-23 16:52 53.79575 12.96712 33952 ft 417 kts 351°
2026-04-23 16:52 53.82325 12.95197 33503 ft 415 kts 351°
2026-04-23 16:53 53.85060 12.93686 33066 ft 412 kts 351°
2026-04-23 16:53 53.87776 12.92183 32637 ft 410 kts 350°
2026-04-23 16:53 53.90478 12.90686 32219 ft 407 kts 350°
2026-04-23 16:53 53.93166 12.89195 31800 ft 405 kts 350°
2026-04-23 16:54 53.95845 12.87708 31363 ft 404 kts 350°
2026-04-23 16:54 53.98508 12.86228 30938 ft 402 kts 350°
2026-04-23 16:54 54.01165 12.84749 30522 ft 401 kts 349°
2026-04-23 16:54 54.03814 12.83272 30085 ft 400 kts 349°
2026-04-23 16:55 54.06451 12.81800 29617 ft 398 kts 349°
2026-04-23 16:55 54.09036 12.80353 29190 ft 394 kts 349°
2026-04-23 16:55 54.11632 12.78898 28756 ft 391 kts 348°
2026-04-23 16:55 54.14206 12.77454 28338 ft 388 kts 348°
2026-04-23 16:56 54.16765 12.76017 27913 ft 386 kts 348°
2026-04-23 16:56 54.19304 12.74590 27489 ft 383 kts 347°
2026-04-23 16:56 54.21833 12.73167 27061 ft 381 kts 347°
2026-04-23 16:56 54.24344 12.71753 26633 ft 379 kts 347°
2026-04-23 16:57 54.26847 12.70342 26201 ft 377 kts 346°
2026-04-23 16:57 54.29331 12.68939 25795 ft 375 kts 346°
2026-04-23 16:57 54.31822 12.67819 25577 ft 363 kts 353°
2026-04-23 16:57 54.34288 12.67096 25347 ft 356 kts 355°
2026-04-23 16:58 54.36728 12.66459 24967 ft 354 kts 355°
2026-04-23 16:58 54.39167 12.65838 24581 ft 353 kts 354°
2026-04-23 16:58 54.41586 12.65212 24227 ft 351 kts 354°
2026-04-23 16:58 54.43957 12.64585 23911 ft 348 kts 353°
2026-04-23 16:59 54.46343 12.63941 23545 ft 345 kts 353°
2026-04-23 16:59 54.48707 12.63294 23160 ft 343 kts 353°
2026-04-23 16:59 54.51049 12.62647 22779 ft 340 kts 353°
2026-04-23 16:59 54.53376 12.62001 22376 ft 338 kts 353°
2026-04-23 17:00 54.55708 12.61352 21842 ft 340 kts 353°
2026-04-23 17:00 54.58047 12.60699 21324 ft 342 kts 353°
2026-04-23 17:00 54.60401 12.60041 20816 ft 343 kts 352°
2026-04-23 17:00 54.62755 12.59381 20315 ft 344 kts 352°
2026-04-23 17:01 54.65119 12.58717 19817 ft 344 kts 352°
2026-04-23 17:01 54.67490 12.58051 19282 ft 346 kts 352°
2026-04-23 17:01 54.69870 12.57381 18768 ft 347 kts 352°
2026-04-23 17:01 54.72261 12.56708 18217 ft 348 kts 352°
2026-04-23 17:02 54.73844 12.56262 17826 ft 348 kts 352°
2026-04-23 17:02 54.77043 12.55358 17036 ft 349 kts 352°
2026-04-23 17:02 54.79439 12.54680 16471 ft 348 kts 352°
2026-04-23 17:02 54.81828 12.54003 15917 ft 346 kts 352°
2026-04-23 17:03 54.84174 12.53336 15341 ft 337 kts 352°
2026-04-23 17:03 54.86457 12.52686 14798 ft 329 kts 352°
2026-04-23 17:03 54.88688 12.52051 14262 ft 321 kts 352°
2026-04-23 17:03 54.90873 12.51429 13707 ft 315 kts 352°
2026-04-23 17:04 54.92988 12.50827 13133 ft 309 kts 352°
2026-04-23 17:04 54.95083 12.50230 12660 ft 301 kts 352°
2026-04-23 17:04 54.97124 12.49647 12200 ft 293 kts 352°
2026-04-23 17:04 54.99116 12.49078 11739 ft 287 kts 352°
2026-04-23 17:05 55.01058 12.48523 11359 ft 279 kts 352°
2026-04-23 17:05 55.02948 12.47982 10976 ft 271 kts 351°
2026-04-23 17:05 55.04799 12.47452 10570 ft 270 kts 351°
2026-04-23 17:05 55.06643 12.46924 10157 ft 267 kts 351°
2026-04-23 17:06 55.08465 12.46401 9707 ft 263 kts 351°
2026-04-23 17:06 55.10266 12.45884 9269 ft 261 kts 351°
2026-04-23 17:06 55.12046 12.45372 8826 ft 258 kts 351°
2026-04-23 17:06 55.13798 12.44868 8417 ft 252 kts 351°
2026-04-23 17:07 55.15514 12.44374 8032 ft 248 kts 351°
2026-04-23 17:07 55.17207 12.43886 7655 ft 245 kts 350°
2026-04-23 17:07 55.18869 12.43407 7298 ft 247 kts 350°
2026-04-23 17:07 55.20578 12.42913 6938 ft 250 kts 350°
2026-04-23 17:08 55.22300 12.42415 6578 ft 252 kts 350°
2026-04-23 17:08 55.24037 12.41912 6191 ft 253 kts 350°
2026-04-23 17:08 55.25775 12.41409 5864 ft 253 kts 350°
2026-04-23 17:08 55.27510 12.40906 5529 ft 253 kts 349°
2026-04-23 17:09 55.29258 12.40685 5241 ft 252 kts
2026-04-23 17:09 55.30982 12.40989 4975 ft 244 kts
2026-04-23 17:09 55.32635 12.41349 4703 ft 235 kts
2026-04-23 17:09 55.34226 12.41715 4441 ft 227 kts
2026-04-23 17:10 55.35766 12.42093 4195 ft 219 kts
2026-04-23 17:10 55.37249 12.42479 3976 ft 211 kts
2026-04-23 17:10 55.38675 12.42876 3777 ft 202 kts
2026-04-23 17:10 55.40019 12.43279 3618 ft 191 kts
2026-04-23 17:11 55.41288 12.43681 3412 ft 180 kts
2026-04-23 17:11 55.42482 12.44080 3214 ft 170 kts
2026-04-23 17:11 55.43637 12.44471 3036 ft 169 kts
2026-04-23 17:11 55.44798 12.44861 2865 ft 170 kts
2026-04-23 17:12 55.45569 12.45120 2750 ft 170 kts
2026-04-23 17:12 55.47121 12.45641 2537 ft 170 kts
2026-04-23 17:12 55.48290 12.46029 2375 ft 172 kts
2026-04-23 17:12 55.49464 12.46408 2193 ft 170 kts
2026-04-23 17:13 55.50495 12.47354 2037 ft 167 kts 31°
2026-04-23 17:13 55.51400 12.48500 1959 ft 157 kts 27°
2026-04-23 17:13 55.52286 12.49650 1780 ft 159 kts 31°
2026-04-23 17:13 55.53109 12.50876 1582 ft 151 kts 34°
2026-04-23 17:14 55.53886 12.52079 1366 ft 143 kts 33°
2026-04-23 17:14 55.54622 12.53219 1181 ft 143 kts 33°
2026-04-23 17:14 55.55379 12.54390 983 ft 147 kts 35°
2026-04-23 17:14 55.56153 12.55589 803 ft 149 kts 37°
2026-04-23 17:15 55.56928 12.56795 627 ft 148 kts 36°
2026-04-23 17:15 55.57704 12.57994 445 ft 147 kts 38°
2026-04-23 17:15 55.58470 12.59188 250 ft 146 kts 37°
2026-04-23 17:15 55.59225 12.60361 52 ft 143 kts 39°
2026-04-23 17:16 55.59924 12.61439 17 ft 116 kts 41°
2026-04-23 17:16 55.60414 12.62199 17 ft 72 kts 41°
2026-04-23 17:16 55.60612 12.62506 19 ft 42 kts 41°
2026-04-23 17:16 55.60771 12.62738 19 ft 28 kts 32°
2026-04-23 17:17 55.60945 12.62861 17 ft 26 kts 14°
2026-04-23 17:17 55.61082 12.62905 16 ft 19 kts 16°
2026-04-23 17:17 55.61191 12.63023 16 ft 18 kts 41°
2026-04-23 17:17 55.61285 12.63169 17 ft 18 kts 42°
2026-04-23 17:18 55.61464 12.63445 16 ft 16 kts 41°
2026-04-23 17:18 55.61548 12.63575 16 ft 16 kts 41°
2026-04-23 17:18 55.61632 12.63706 17 ft 17 kts 41°
2026-04-23 17:19 55.61727 12.63854 17 ft 18 kts 41°
2026-04-23 17:19 55.61822 12.64002 16 ft 18 kts 41°
2026-04-23 17:19 55.61924 12.64117 17 ft 17 kts 26°
2026-04-23 17:19 55.62032 12.64204 18 ft 17 kts 24°
2026-04-23 17:20 55.62123 12.64282 17 ft 13 kts 26°
2026-04-23 17:20 55.62151 12.64306 16 ft 0 kts 26°
2026-04-23 17:23 55.62194 12.64342 15 ft 12 kts 24°
2026-04-23 17:23 55.62264 12.64469 16 ft 16 kts 65°
2026-04-23 17:23 55.62284 12.64814 16 ft 15 kts 124°
2026-04-23 17:24 55.62229 12.64962 16 ft 14 kts 124°
2026-04-23 17:24 55.62180 12.65107 17 ft 14 kts 100°
2026-04-23 17:24 55.62334 12.65205 16 ft 13 kts
2026-04-23 17:25 55.62430 12.65120 16 ft 8 kts 270°
2026-04-23 17:25 55.62429 12.65070 16 ft 3 kts 268°
2026-04-23 17:26 55.62429 12.65048 16 ft 0 kts 268°